Location: Kapla
(46.2483°N, 15.0094°E)
Time: 14:56:46
(UTC+00:00)

Cosmos 1515 - Pass Details

Date: 03 March 2021
Orbit: 504 x 516 km, 82.5° (Epoch: 19 April)

Event Time Altitude Azimuth Distance (km) Brightness Sun altitude
Rises 17:54:13 0° 348° (NNW) 2,647 7.5 -12.0°
Reaches altitude 10° 17:56:23 10° 346° (NNW) 1,753 6.6 -12.4°
Maximum altitude 18:00:11 66° 264° (W) 567 4.1 -13.1°
Drops below altitude 10° 18:03:57 10° 182° (S) 1,732 6.3 -13.7°
Sets 18:06:05 0° 179° (S) 2,611 7.2 -14.1°
